Погода в Лучках

Россия / Приморский край     44°17′11″N   132°15′38″E
темп.,
°C
ветер,
м/с
пор.,
м/с
влажн.,
%
обл.,
%
осадки,
мм/ч
давл.,
гПа
погр.,
м
17 апреля, сб
сб1701:00+6ю6128433 0.1 1009365
04:00+5ююз511855 0.1 1010298
07:00+4ю49891 0.0 1011228
10:00+9юз46530 0.0 1012636
13:00+13зюз472930 0.0 10122599
16:00+14зюз3619100 0.0 10103129
19:00+13зюз2228100 0.0 100952
22:00+9ссв41043100 0.0 1010245
18 апреля, вс
вс1801:00+8ссв374889 0.0 1010122
04:00+5с41063100 0.0 1009241
07:00+4ссв5138097 0.0 1010446
10:00+8с9126072 0.0 10101119
13:00+11с10124933 0.0 10081462
16:00+13ссв9134215 0.0 10061802
19:00+13с5104490 0.0 10061052
22:00+9сз23545 0.0 100757
19 апреля, пн
пн1901:00+8ссз23574 0.0 100630
04:00+7зсз11605 0.0 100610
07:00+7зюз11615 0.0 100610
10:00+13зсз25413 0.0 1006678
13:00+18ссз472754 0.0 10042325
16:00+20сз58213 0.0 10022792
19:00+18св342967 0.0 1003109
22:00+14ююз33348 0.0 100431
20 апреля, вт
вт2001:00+9ссв9155983 0.0 1008605
04:00+7с712386 0.0 10131094
07:00+5ссз511360 0.0 1015912
10:00+8сз610210 0.0 10171309
13:00+13сз814140 0.0 10152325
16:00+15ссз1013150 0.0 10152356
19:00+13сз610210 0.0 10161289
22:00+10зсз39290 0.0 1019165
21 апреля, ср
ср2101:00+8з36350 0.0 102087
04:00+7ююз22335 0.0 102113
07:00+6ююз33410 0.0 102247
10:00+13ююз58274 0.0 1020431
13:00+19ююз79200 0.0 1018966
16:00+21ююз68195 0.0 10161138
19:00+17ю7142990 0.0 1014477
22:00+13ююз7155318 0.0 1016375